"Pseudo-MPEC" for P11XKwp

Created 2024 Sep 5 21:22:13 UT using Find_Orb

Click here for an explanation of pseudo-MPECs

 
 Astrometry: 
     P11XKwp* C2024 09 01.44680223 02 47.461+36 09 16.39   ~91FM 21.87wXNEOCPF51
     P11XKwp  C2024 09 01.45835323 02 49.273+36 09 31.72   ~91FM 22.02wXNEOCPF51
     P11XKwp  C2024 09 01.46991223 02 51.139+36 09 47.70   ~91FM 22.07wXNEOCPF51
     P11XKwp  C2024 09 01.48151623 02 53.011+36 10 03.31   ~91FM 22.22wXNEOCPF51
     P11XKwp 3C2024 09 02.43392223 06 01.889+36 31 26.36   ~92Cb 21.71GVNEOCPT14
     P11XKwp 3C2024 09 02.43490023 06 02.048+36 31 27.62   ~92Cb 21.71GVNEOCPT14
     P11XKwp 1C2024 09 04.02504 23 11 21.46 +37 03 43.3    ~946b 22.2 VXNEOCP033
     P11XKwp 1C2024 09 04.02868 23 11 22.13 +37 03 47.2    ~946b 21.7 VXNEOCP033
     P11XKwp 1C2024 09 04.03231 23 11 22.80 +37 03 51.3    ~946b 22.0 VXNEOCP033
     P11XKwp  C2024 09 04.27018723 12 14.103+37 08 49.76   ~947M 22.1 GVNEOCPH01
     P11XKwp  C2024 09 04.27338723 12 14.668+37 08 53.61   ~947M 22.2 GVNEOCPH01
     P11XKwp  C2024 09 04.28289923 12 16.342+37 09 05.31   ~947M 22.0 GVNEOCPH01
     P11XKwp  C2024 09 04.28993223 12 17.559+37 09 13.60   ~947M 22.2 GVNEOCPH01
     P11XKwp  C2024 09 05.18250723 15 25.831+37 25 37.12   ~955M 22.1 GVNEOCPH01
     P11XKwp  C2024 09 05.18641423 15 26.567+37 25 41.90   ~955M 22.0 GVNEOCPH01
     P11XKwp  C2024 09 05.19816823 15 28.749+37 25 56.36   ~955M 22.0 GVNEOCPH01
     P11XKwp  C2024 09 05.20533623 15 30.082+37 26 04.96   ~955M 22.3 GVNEOCPH01
     P11XKwp KC2024 09 05.29422923 15 44.51 +37 27 39.9    ~957b 22.8 GVNEOCPH21
     P11XKwp KC2024 09 05.30000723 15 45.58 +37 27 45.9    ~957b 22.3 GVNEOCPH21

Station data:
(033) Karl Schwarzschild Observatory, Tautenburg  (N50.980139 E11.711240)
   Germany.  Observer B. Stecklum. 1.34-m f/3 Schmidt + CCD.
(F51) Pan-STARRS 1, Haleakala  (N20.707234 W156.255910)  US/Hawaii.
   Observers J. Bulger, T. Lowe, A. Schultz, M. Willman. Measurers K.
   Chambers, S. Chastel, T. de Boer, L. Denneau, J. Fairlamb, H. Flewelling,
   M. Huber, C.-C. Lin, E. Magnier, Y. Ramanjooloo, R. Wainscoat, R. Weryk.
   1.8-m Ritchey-Chrétien + CCD.
(H01) Magdalena Ridge Observatory, Socorro  (N33.984833 W107.189333)  US/New
   Mexico.  Observers W. H. Ryan, E. V. Ryan. Measurer W. H. Ryan. 2.4-m
   f/8.9 reflector + CCD.
(H21) Astronomical Research Observatory, Westfield  (N39.483054 W87.968270)
   US/Illinois.  Observer R. Holmes. Measurers S. Foglia, L. Buzzi, T.
   Linder, R. Holmes. 0.76-m f/3.0 astrograph + CCD0.81-m f/4.0 astrograph +
   CCD0.61-m f/4.5 astrograph + CCD0.40-m f/5.32 astrograph + CCD.
(T14) Mauna Kea-UH/Tholen NEO Follow-Up (CFHT)  (N19.825252 W155.468876)
   US/Hawaii.  Observer R. Weryk. 3.6-m Canada-France-Hawaii Telescope.

Orbital elements:  P11XKwp
   Perihelion 2024 Sep 17.43535 +/- 0.0339 TT = 10:26:54 (JD 2460570.93535)
Epoch 2024 Sep  5.0 TT = JDT 2460558.5   Earth MOID: 0.1087   Ma: 0.0360
M 353.08990688 +/- 0.034            (J2000 ecliptic)             AutoNEOCP
n   0.55568134 +/- 0.00148          Peri.  126.82755 +/- 0.07
a   1.46527398 +/- 0.0026           Node   229.74563 +/- 0.049
e   0.2537003 +/- 0.00109           Incl.    4.32892 +/- 0.013
P   1.774/647.841d         H 25.00  G  0.15   U  8.4
q 1.09353341 +/- 0.000347    Q 1.83701455 +/- 0.00486
From 19 observations 2024 Sept. 1-5; mean residual 0".13
Residuals in arcseconds: 
240901 F51  .31+  .28+    240904 033  .03+  .03-    240905 H01  .08-  .07-    
240901 F51  .19-  .31-    240904 033  .13+  .00     240905 H01  .11-  .07-    
240901 F51  .07-  .03-    240904 H01  .07-  .04-    240905 H01  .00   .20-    
240901 F51  .02-  .02+    240904 H01  .02-  .06-    240905 H21  .04-  .10-    
240902 T14  .00   .02+    240904 H01  .09+  .23+    240905 H21  .24+  .06+    
240902 T14  .01-  .01-    240904 H01  .06-  .17+    
240904 033  .06-  .17+    240905 H01  .14-  .01-    

Ephemerides (geocentric):
Date (UTC) HH   RA             Dec           delta  r     elong  mag " sig PA
---- --------  ------------   ------------  ------ ------ -----  --- --------
2024 09 05 21  23 17 48.020   +37 37 46.68  .12082 1.0977 135.6 22.2 .058 136
2024 09 05 22  23 17 56.849   +37 38 28.82  .12079 1.0977 135.6 22.2 .061 135
2024 09 05 23  23 18 05.684   +37 39 10.81  .12076 1.0977 135.7 22.2 .065 134
2024 09 06 00  23 18 14.525   +37 39 52.64  .12073 1.0976 135.7 22.2 .069 133
2024 09 06 01  23 18 23.373   +37 40 34.32  .12069 1.0976 135.7 22.2 .073 132
2024 09 06 02  23 18 32.227   +37 41 15.84  .12066 1.0976 135.7 22.2 .077 131
2024 09 06 03  23 18 41.087   +37 41 57.20  .12063 1.0975 135.7 22.2 .081 130
2024 09 06 04  23 18 49.953   +37 42 38.41  .12060 1.0975 135.7 22.2 .086 130
2024 09 06 05  23 18 58.826   +37 43 19.46  .12057 1.0975 135.7 22.2 .090 129
2024 09 06 06  23 19 07.705   +37 44 00.35  .12053 1.0974 135.7 22.2 .095 128
2024 09 06 07  23 19 16.590   +37 44 41.09  .12050 1.0974 135.7 22.2 .099 128
2024 09 06 08  23 19 25.481   +37 45 21.67  .12047 1.0974 135.7 22.2 .104 127
2024 09 06 09  23 19 34.378   +37 46 02.09  .12044 1.0974 135.7 22.2 .109 127
2024 09 06 10  23 19 43.282   +37 46 42.35  .12041 1.0973 135.7 22.2 .113 127
2024 09 06 11  23 19 52.192   +37 47 22.45  .12038 1.0973 135.7 22.2 .118 126
2024 09 06 12  23 20 01.107   +37 48 02.40  .12035 1.0973 135.7 22.2 .124 126
2024 09 06 13  23 20 10.029   +37 48 42.18  .12032 1.0972 135.7 22.2 .129 126
2024 09 06 14  23 20 18.957   +37 49 21.81  .12028 1.0972 135.7 22.2 .134 125
2024 09 06 15  23 20 27.891   +37 50 01.28  .12025 1.0972 135.7 22.2 .139 125
2024 09 06 16  23 20 36.832   +37 50 40.59  .12022 1.0972 135.7 22.2 .145 125
2024 09 06 17  23 20 45.778   +37 51 19.75  .12019 1.0971 135.7 22.2 .150 125
2024 09 06 18  23 20 54.730   +37 51 58.74  .12016 1.0971 135.7 22.2 .156 124
2024 09 06 19  23 21 03.689   +37 52 37.57  .12013 1.0971 135.7 22.2 .162 124
2024 09 06 20  23 21 12.653   +37 53 16.25  .12010 1.0970 135.7 22.2 .167 124
2024 09 06 21  23 21 21.624   +37 53 54.76  .12007 1.0970 135.7 22.2 .173 124
2024 09 06 22  23 21 30.600   +37 54 33.11  .12004 1.0970 135.8 22.2 .179 124
2024 09 06 23  23 21 39.583   +37 55 11.31  .12001 1.0970 135.8 22.2 .185 123
2024 09 07 00  23 21 48.571   +37 55 49.34  .11998 1.0969 135.8 22.2 .192 123
2024 09 07 01  23 21 57.566   +37 56 27.22  .11995 1.0969 135.8 22.2 .198 123
2024 09 07 02  23 22 06.566   +37 57 04.93  .11992 1.0969 135.8 22.2 .204 123
2024 09 07 03  23 22 15.572   +37 57 42.48  .11989 1.0969 135.8 22.2 .211 123
2024 09 07 04  23 22 24.585   +37 58 19.87  .11986 1.0968 135.8 22.2 .217 123
2024 09 07 05  23 22 33.603   +37 58 57.10  .11983 1.0968 135.8 22.2 .224 123
2024 09 07 06  23 22 42.627   +37 59 34.17  .11980 1.0968 135.8 22.2 .231 123
2024 09 07 07  23 22 51.657   +38 00 11.08  .11977 1.0968 135.8 22.2 .237 123
2024 09 07 08  23 23 00.693   +38 00 47.83  .11974 1.0967 135.8 22.2 .244 122
2024 09 07 09  23 23 09.735   +38 01 24.41  .11971 1.0967 135.8 22.2 .251 122
2024 09 07 10  23 23 18.782   +38 02 00.83  .11968 1.0967 135.8 22.2 .258 122
2024 09 07 11  23 23 27.836   +38 02 37.09  .11965 1.0966 135.8 22.2 .266 122
2024 09 07 12  23 23 36.895   +38 03 13.19  .11962 1.0966 135.8 22.2 .273 122
2024 09 07 13  23 23 45.960   +38 03 49.13  .11959 1.0966 135.8 22.2 .280 122
2024 09 07 14  23 23 55.031   +38 04 24.90  .11956 1.0966 135.8 22.2 .288 122
2024 09 07 15  23 24 04.108   +38 05 00.51  .11953 1.0965 135.8 22.2 .295 122
2024 09 07 16  23 24 13.190   +38 05 35.96  .11950 1.0965 135.9 22.2 .303 122
2024 09 07 17  23 24 22.278   +38 06 11.25  .11947 1.0965 135.9 22.2 .311 122
2024 09 07 18  23 24 31.372   +38 06 46.37  .11945 1.0965 135.9 22.2 .318 122
2024 09 07 19  23 24 40.472   +38 07 21.33  .11942 1.0964 135.9 22.2 .326 122
2024 09 07 20  23 24 49.577   +38 07 56.12  .11939 1.0964 135.9 22.2 .334 122